Погода в Салаирке

Россия / Тюменская область     57°22′44″N   65°00′37″E
темп.,
°C
ветер,
м/с
пор.,
м/с
влажн.,
%
обл.,
%
осадки,
мм/ч
давл.,
гПа
погр.,
м
14 июня, пн
пн1423:00+17ююз226493 0.0 102239
02:00+14ююз236921 0.0 102253
05:00+14ююз22705 0.0 102334
08:00+21юз25470 0.0 1022360
11:00+27ююз46290 0.0 10211811
14:00+30юз572223 0.0 10203053
17:00+29юз56296 0.0 10192732
20:00+24юз37535 0.0 1018158
15 июня, вт
вт1523:00+19ююз3116461 0.0 1018229
02:00+18юз31156100 0.0 1017260
05:00+17ююз3966100 0.1 1016202
08:00+22юз485199 0.0 1015375
11:00+24з51048100 0.0 1015944
14:00+25з3848100 0.0 10141273
17:00+21зюз51165100 0.0 1014813
20:00+21зюз411750 0.1 1012685
16 июня, ср
ср1623:00+17юз26955 0.8 1012124
02:00+16з399520 0.0 1012198
05:00+16з279595 0.0 1012152
08:00+21сз357257 0.0 1013384
11:00+26зсз474121 0.0 10131950
14:00+28зсз57337 0.0 10122457
17:00+28зсз473424 0.0 10112482
20:00+24зюз255738 0.0 1010108
17 июня, чт
чт1723:00+19зюз22753 0.0 101022
02:00+17ююв12830 0.0 101012
05:00+18ю27852 0.0 1008165
08:00+22ю4976100 0.6 1006486
11:00+28юз454377 0.6 10051297
14:00+20юз31281100 0.8 1005761
17:00+21з5118291 1.2 1004651
20:00+19ссз6118513 0.4 1005895
18 июня, пт
пт1823:00+14с61373100 0.5 1007831
02:00+10с61267100 0.0 1009872
05:00+8с6127190 0.0 1011840
08:00+10с6105552 0.0 10121061
11:00+15с71035100 0.0 10121671
14:00+17с71029100 0.0 10122091
17:00+18с610277 0.0 10132617
20:00+15ссв26415 0.0 1013207